EW9034 Weather Reports


time (UTC)temp
C
wind
direction
speed
KPH
gust
KPH
rain 1hr
cm
rain 24hr
cm
rain mn
cm
humidity
%
barometer
mb
20260502233027 19 271 8.0 20.9 0.00 0.00 0.00 35 1013.6
20260502231513 18 298 8.0 19.3 0.00 0.00 0.00 35 1013.7
20260502230013 19 276 12.9 32.2 0.00 0.00 0.00 35 1014.0
20260502224510 18 290 11.3 17.7 0.00 0.00 0.00 35 1014.1
20260502223009 18 281 9.7 24.1 0.00 0.00 0.00 36 1014.4
20260502221514 18 268 1.6 20.9 0.00 0.00 0.00 35 1014.7
20260502220007 17 259 9.7 27.4 0.00 0.00 0.00 36 1015.0
20260502214506 17 256 8.0 17.7 0.00 0.00 0.00 38 1015.1
20260502213006 17 244 12.9 25.7 0.00 0.00 0.00 38 1015.4
20260502211505 17 287 6.4 17.7 0.00 0.00 0.00 40 1015.5
20260502210007 16 289 9.7 17.7 0.00 0.00 0.00 42 1015.7
20260502204503 17 291 6.4 16.1 0.00 0.00 0.00 39 1015.8
20260502203003 16 299 4.8 17.7 0.00 0.00 0.00 38 1016.0
20260502201502 17 302 9.7 17.7 0.00 0.00 0.00 36 1016.2
20260502200002 16 307 1.6 9.7 0.00 0.00 0.00 37 1016.3
20260502194502 16 312 9.7 20.9 0.00 0.00 0.00 40 1016.4
20260502193102 17 323 12.9 24.1 0.00 0.00 0.00 42 1016.5
20260502191607 16 331 6.4 22.5 0.00 0.00 0.00 42 1016.7
20260502190059 17 337 9.7 20.9 0.00 0.00 0.00 41 1016.7
20260502184602 17 334 16.1 30.6 0.00 0.00 0.00 40 1016.8
20260502183057 17 355 11.3 25.7 0.00 0.00 0.00 40 1016.7
20260502181556 18 341 11.3 24.1 0.00 0.00 0.00 41 1016.9
20260502163051 15 307 9.7 17.7 0.00 0.00 0.00 51 1017.1
20260502161544 16 320 6.4 17.7 0.00 0.00 0.00 55 1017.1
20260502151551 15 10 0.0 8.0 0.00 0.00 0.00 57 1016.9
20260502123105 8 45 1.6 14.5 0.00 0.00 0.00 82 1016.6
20260502121558 7 52 0.0 4.8 0.00 0.00 0.00 79 1016.5
20260502114557 5 53 3.2 8.0 0.00 0.00 0.00 75 1016.3
20260502113053 6 53 3.2 9.7 0.00 0.00 0.00 75 1016.0
20260502111553 6 53 1.6 6.4 0.00 0.00 0.00 74 1016.1
20260502110049 6 53 1.6 6.4 0.00 0.00 0.00 75 1016.1
20260502104544 6 53 0.0 0.0 0.00 0.00 0.00 75 1016.0
20260502103041 7 53 0.0 0.0 0.00 0.00 0.00 71 1015.7
20260502101551 7 53 0.0 0.0 0.00 0.00 0.00 70 1015.7
20260502100103 7 53 0.0 4.8 0.00 0.00 0.00 69 1015.6
20260502071522 7 63 6.4 9.7 0.00 0.00 0.00 65 1014.6
20260502070019 7 63 4.8 8.0 0.00 0.00 0.00 63 1014.2
20260502054511 10 54 6.4 14.5 0.00 0.00 0.00 55 1013.4
20260502053011 11 54 8.0 16.1 0.00 0.00 0.00 52 1013.2
20260502051521 9 64 6.4 12.9 0.00 0.00 0.00 57 1012.8
20260502050011 8 67 6.4 9.7 0.00 0.00 0.00 60 1012.3
20260502044508 8 67 4.8 9.7 0.00 0.00 0.00 54 1012.0
20260502043008 9 67 4.8 8.0 0.00 0.00 0.00 53 1011.7
20260502041518 10 69 1.6 3.2 0.00 0.00 0.00 56 1011.5
20260502040013 10 69 3.2 6.4 0.00 0.00 0.00 45 1011.5
20260502034508 11 69 3.2 9.7 0.00 0.00 0.00 41 1011.5
20260502033007 13 68 4.8 8.0 0.00 0.00 0.00 38 1011.4
20260502031506 13 68 8.0 12.9 0.00 0.00 0.00 38 1011.2
20260502030005 14 67 8.0 9.7 0.00 0.00 0.00 37 1011.1
20260502024504 16 51 8.0 11.3 0.00 0.00 0.00 35 1011.1
20260502023003 17 28 4.8 6.4 0.00 0.00 0.00 33 1011.0
20260502021608 19 20 0.0 3.2 0.00 0.00 0.00 32 1010.9
20260502020059 20 20 0.0 4.8 0.00 0.00 0.00 32 1010.9
20260502014557 21 20 3.2 6.4 0.00 0.00 0.00 27 1011.0
20260502013055 21 20 4.8 8.0 0.00 0.00 0.00 26 1011.1
20260502011554 21 18 8.0 16.1 0.00 0.00 0.00 26 1011.1
20260502010107 22 5 12.9 17.7 0.00 0.00 0.00 23 1011.3
20260502004558 22 26 8.0 17.7 0.00 0.00 0.00 25 1011.4
20260502003049 22 24 9.7 20.9 0.00 0.00 0.00 23 1011.4
20260502001548 22 13 14.5 20.9 0.00 0.00 0.00 24 1011.6
20260502000049 22 349 16.1 22.5 0.00 0.00 0.00 23 1011.6
20260501234548 22 306 4.8 16.1 0.00 0.00 0.00 23 1011.6